Погода в Каргали

Россия / Республика Татарстан     55°12′50″N   50°53′56″E
темп.,
°C
ветер,
м/с
пор.,
м/с
влажн.,
%
обл.,
%
осадки,
мм/ч
давл.,
гПа
погр.,
м
11 мая, вт
вт1100:00+15всв236172 0.0 102123
03:00+14всв3363100 0.0 102329
06:00+16в2458100 0.0 102397
09:00+22в2343100 0.0 1025461
12:00+25всв3335100 0.0 10251668
15:00+26всв233045 0.0 10252651
18:00+20ююв245366 0.0 102671
21:00+18в235636 0.0 102721
12 мая, ср
ср1200:00+16в225297 0.0 102717
03:00+14всв336118 0.0 102736
06:00+17вюв246516 0.0 1028121
09:00+22вюв34475 0.0 1028703
12:00+25вюв453284 0.0 10272654
15:00+25юв552976 0.0 10272749
18:00+22вюв34475 0.0 102784
21:00+18ю345859 0.0 102746
13 мая, чт
чт1300:00+16ю225975 0.0 102712
03:00+15юв2261100 0.0 102713
06:00+17вюв246160 0.0 1028135
09:00+22юв564027 0.0 1027891
12:00+24ююв5633100 0.0 10271555
15:00+25ююв563266 0.0 10261823
18:00+22юв36480 0.0 1025149
21:00+18ююв37562 0.0 1025106
14 мая, пт
пт1400:00+16ююв3857100 0.0 1025120
03:00+15ююв485838 0.0 1025135
06:00+17ююв41061100 0.0 1025248
09:00+23ююв694313 0.4 1024550
12:00+26ю683421 0.0 10231060
15:00+27ююз68335 0.0 10231486
18:00+24ю38507 0.0 1022196
21:00+19ю412575 0.0 1022224
15 мая, сб
сб1500:00+17ю395439 0.0 1022143
03:00+15ю355520 0.0 102382
06:00+17ю495836 0.0 1023217
09:00+23ю69415 0.0 1022537
12:00+27ююз68323 0.0 10211078
15:00+28ююз67303 0.0 10201479
18:00+25ю36470 0.0 1019123
21:00+20ю46530 0.0 101981